TimeCST,TemperatureF,Dew PointF,Humidity,Sea Level PressureIn,VisibilityMPH,Wind Direction,Wind SpeedMPH,Gust SpeedMPH,PrecipitationIn,Events,Conditions,WindDirDegrees,DateUTC
12:15 AM,26.6,21.2,80,30.03,10.0,SSE,5.8,-,N/A,,Overcast,150,2013-02-17 06:15:00
12:35 AM,26.6,21.2,80,30.03,10.0,SE,4.6,-,N/A,,Overcast,140,2013-02-17 06:35:00
12:55 AM,24.8,21.2,86,30.03,10.0,SSE,5.8,-,N/A,,Overcast,150,2013-02-17 06:55:00
1:15 AM,24.8,21.2,86,30.03,10.0,SSE,4.6,-,N/A,,Overcast,160,2013-02-17 07:15:00
1:35 AM,26.6,21.2,80,30.02,10.0,SE,4.6,-,N/A,,Overcast,140,2013-02-17 07:35:00
1:55 AM,24.8,21.2,86,30.03,10.0,ESE,4.6,-,N/A,,Overcast,120,2013-02-17 07:55:00
2:15 AM,23.0,21.2,93,30.03,10.0,ESE,4.6,-,N/A,,Scattered Clouds,110,2013-02-17 08:15:00
2:35 AM,23.0,21.2,93,30.03,10.0,SSE,5.8,-,N/A,,Clear,150,2013-02-17 08:35:00
2:55 AM,23.0,21.2,93,30.02,10.0,SE,5.8,-,N/A,,Clear,130,2013-02-17 08:55:00
3:15 AM,23.0,19.4,86,30.01,10.0,SSE,3.5,-,N/A,,Clear,150,2013-02-17 09:15:00
3:35 AM,23.0,19.4,86,30.01,10.0,Calm,Calm,-,N/A,,Clear,0,2013-02-17 09:35:00
3:55 AM,21.2,19.4,93,30.01,10.0,SE,3.5,-,N/A,,Clear,140,2013-02-17 09:55:00
4:15 AM,21.2,19.4,93,30.00,10.0,SSE,4.6,-,N/A,,Clear,160,2013-02-17 10:15:00
4:35 AM,21.2,19.4,93,30.00,10.0,SSE,5.8,-,N/A,,Clear,160,2013-02-17 10:35:00
4:55 AM,21.2,17.6,86,29.99,10.0,SE,5.8,-,N/A,,Clear,140,2013-02-17 10:55:00
5:15 AM,19.4,17.6,93,29.99,10.0,SSE,3.5,-,N/A,,Clear,150,2013-02-17 11:15:00
5:35 AM,21.2,19.4,93,29.99,10.0,SE,4.6,-,N/A,,Clear,130,2013-02-17 11:35:00
5:55 AM,19.4,17.6,93,29.98,10.0,SE,5.8,-,N/A,,Clear,140,2013-02-17 11:55:00
6:15 AM,19.4,17.6,93,29.98,10.0,SSE,4.6,-,N/A,,Clear,150,2013-02-17 12:15:00
6:35 AM,19.4,17.6,93,29.97,10.0,SE,8.1,-,N/A,,Clear,140,2013-02-17 12:35:00
6:55 AM,19.4,17.6,93,29.97,10.0,SE,6.9,-,N/A,,Clear,140,2013-02-17 12:55:00
7:15 AM,19.4,17.6,93,29.96,10.0,SE,9.2,-,N/A,,Clear,140,2013-02-17 13:15:00
7:35 AM,19.4,17.6,93,29.96,10.0,SE,6.9,-,N/A,,Clear,140,2013-02-17 13:35:00
7:55 AM,21.2,19.4,93,29.96,10.0,SE,8.1,-,N/A,,Clear,140,2013-02-17 13:55:00
8:15 AM,23.0,19.4,86,29.96,10.0,SSE,9.2,-,N/A,,Clear,150,2013-02-17 14:15:00
8:35 AM,24.8,21.2,86,29.95,10.0,SE,11.5,-,N/A,,Clear,140,2013-02-17 14:35:00
8:55 AM,26.6,23.0,86,29.94,10.0,SSE,12.7,-,N/A,,Clear,150,2013-02-17 14:55:00
9:15 AM,28.4,23.0,80,29.93,10.0,SE,15.0,-,N/A,,Clear,140,2013-02-17 15:15:00
9:35 AM,30.2,23.0,75,29.93,10.0,SSE,15.0,-,N/A,,Clear,150,2013-02-17 15:35:00
9:55 AM,32.0,23.0,69,29.92,10.0,SSE,15.0,-,N/A,,Clear,150,2013-02-17 15:55:00
10:15 AM,33.8,24.8,70,29.92,10.0,SSE,16.1,-,N/A,,Clear,160,2013-02-17 16:15:00
10:35 AM,35.6,24.8,65,29.91,10.0,South,13.8,20.7,N/A,,Clear,170,2013-02-17 16:35:00
10:55 AM,37.4,24.8,60,29.89,10.0,SSE,15.0,-,N/A,,Clear,160,2013-02-17 16:55:00
11:15 AM,39.2,24.8,56,29.88,10.0,SSE,18.4,-,N/A,,Clear,160,2013-02-17 17:15:00
11:35 AM,39.2,24.8,56,29.87,10.0,SSE,19.6,-,N/A,,Clear,160,2013-02-17 17:35:00
11:55 AM,42.8,24.8,49,29.86,10.0,SSE,18.4,-,N/A,,Clear,160,2013-02-17 17:55:00
12:15 PM,42.8,24.8,49,29.84,9.0,SSE,17.3,25.3,N/A,,Clear,160,2013-02-17 18:15:00
12:35 PM,44.6,24.8,46,29.82,10.0,SSE,20.7,28.8,N/A,,Clear,150,2013-02-17 18:35:00
12:55 PM,44.6,24.8,46,29.81,10.0,SSE,18.4,25.3,N/A,,Clear,150,2013-02-17 18:55:00
1:15 PM,46.4,26.6,46,29.79,10.0,SSE,19.6,26.5,N/A,,Clear,150,2013-02-17 19:15:00
1:35 PM,46.4,26.6,46,29.78,10.0,SSE,20.7,-,N/A,,Clear,160,2013-02-17 19:35:00
1:55 PM,48.2,26.6,43,29.76,10.0,SSE,23.0,-,N/A,,Clear,160,2013-02-17 19:55:00
2:15 PM,50.0,26.6,40,29.75,10.0,SSE,20.7,27.6,N/A,,Clear,160,2013-02-17 20:15:00
2:35 PM,48.2,26.6,43,29.74,10.0,SSE,23.0,-,N/A,,Clear,160,2013-02-17 20:35:00
2:55 PM,50.0,28.4,43,29.73,10.0,SSE,21.9,27.6,N/A,,Clear,160,2013-02-17 20:55:00
3:15 PM,50.0,28.4,43,29.72,10.0,SSE,20.7,27.6,N/A,,Clear,160,2013-02-17 21:15:00
3:35 PM,48.2,28.4,46,29.72,10.0,SSE,23.0,-,N/A,,Clear,160,2013-02-17 21:35:00
3:55 PM,48.2,28.4,46,29.71,10.0,SSE,18.4,27.6,N/A,,Clear,160,2013-02-17 21:55:00
4:15 PM,48.2,28.4,46,29.70,10.0,SSE,18.4,25.3,N/A,,Clear,160,2013-02-17 22:15:00
4:35 PM,48.2,28.4,46,29.69,10.0,SSE,19.6,27.6,N/A,,Clear,160,2013-02-17 22:35:00
4:55 PM,46.4,28.4,50,29.69,10.0,SSE,18.4,-,N/A,,Clear,150,2013-02-17 22:55:00
5:15 PM,46.4,28.4,50,29.68,10.0,SSE,17.3,-,N/A,,Clear,150,2013-02-17 23:15:00
5:35 PM,44.6,28.4,53,29.67,10.0,SSE,19.6,-,N/A,,Clear,160,2013-02-17 23:35:00
5:55 PM,42.8,28.4,57,29.66,10.0,SSE,16.1,-,N/A,,Clear,150,2013-02-17 23:55:00
6:15 PM,41.0,28.4,61,29.65,10.0,SSE,18.4,-,N/A,,Clear,150,2013-02-18 00:15:00
6:35 PM,41.0,28.4,61,29.65,10.0,SSE,18.4,-,N/A,,Clear,150,2013-02-18 00:35:00
6:55 PM,41.0,28.4,61,29.65,10.0,SSE,18.4,-,N/A,,Clear,160,2013-02-18 00:55:00
7:15 PM,39.2,28.4,65,29.65,10.0,SSE,15.0,-,N/A,,Clear,160,2013-02-18 01:15:00
7:35 PM,41.0,28.4,61,29.65,10.0,SSE,16.1,-,N/A,,Clear,160,2013-02-18 01:35:00
7:55 PM,39.2,28.4,65,29.66,10.0,SSE,12.7,-,N/A,,Clear,160,2013-02-18 01:55:00
8:15 PM,39.2,28.4,65,29.65,10.0,SSE,11.5,-,N/A,,Clear,160,2013-02-18 02:15:00
8:35 PM,39.2,28.4,65,29.65,10.0,SSE,13.8,-,N/A,,Clear,160,2013-02-18 02:35:00
8:55 PM,39.2,30.2,70,29.64,10.0,South,15.0,-,N/A,,Clear,170,2013-02-18 02:55:00
9:15 PM,39.2,30.2,70,29.64,10.0,SSE,13.8,-,N/A,,Clear,160,2013-02-18 03:15:00
9:35 PM,39.2,30.2,70,29.63,10.0,SSE,13.8,19.6,N/A,,Clear,160,2013-02-18 03:35:00
9:55 PM,39.2,30.2,70,29.63,10.0,SSE,11.5,-,N/A,,Clear,160,2013-02-18 03:55:00
10:15 PM,39.2,30.2,70,29.62,10.0,SSE,11.5,-,N/A,,Clear,160,2013-02-18 04:15:00
10:35 PM,39.2,30.2,70,29.62,10.0,South,10.4,-,N/A,,Clear,170,2013-02-18 04:35:00
10:55 PM,39.2,30.2,70,29.61,10.0,SSE,10.4,-,N/A,,Clear,160,2013-02-18 04:55:00
11:15 PM,39.2,30.2,70,29.60,10.0,SSE,10.4,-,N/A,,Clear,160,2013-02-18 05:15:00
11:35 PM,39.2,30.2,70,29.59,10.0,South,9.2,-,N/A,,Clear,170,2013-02-18 05:35:00
11:55 PM,37.4,30.2,75,29.58,10.0,South,11.5,-,N/A,,Clear,170,2013-02-18 05:55:00